Theta_e
308 309 311 311 311 309 308 310 310 310 310 311 310 310 310 308 307 309 310 308 312 314 315 316 317 319 320 324 326 328 333 333 329 329 328 327 325 326 324 325 335 330 338 341 345
309 308 308 310 310 309 307 310 309 309 309 309 307 308 307 307 307 308 307 308 311 313 314 315 318 318 321 323 327 330 333 334 328 326 327 326 325 327 325 328 330 330 333 340 344
312 309 307 308 309 309 307 308 309 309 309 307 306 307 306 306 307 306 309 310 311 312 314 315 316 318 320 321 326 328 331 327 325 324 327 327 328 326 325 328 328 328 329 335 345
310 310 308 305 308 309 308 307 308 308 307 307 306 306 305 307 309 307 308 309 311 312 313 315 318 320 320 322 323 326 326 326 326 326 327 327 326 327 327 327 324 325 331 334 344
309 309 308 306 306 308 309 309 308 307 307 307 306 306 305 306 305 304 306 308 311 311 311 315 318 319 319 320 321 324 323 324 325 327 327 326 325 327 327 325 323 325 330 337 341
309 309 308 306 305 307 308 308 307 307 308 307 305 303 306 306 304 305 305 308 311 311 311 312 316 316 317 318 320 322 323 323 326 326 326 328 327 324 325 325 324 324 327 332 337
309 308 308 307 305 306 307 308 308 303 307 307 305 305 306 305 305 305 306 307 308 311 311 311 313 317 315 318 320 321 324 325 327 327 327 326 327 325 324 324 325 325 326 327 327
308 308 307 307 305 305 307 307 308 306 304 307 304 305 305 304 305 305 306 307 307 306 310 310 312 315 317 316 321 323 323 328 326 325 326 326 329 326 322 325 325 324 325 326 325
307 307 305 306 304 303 305 305 307 306 305 306 306 305 304 305 305 304 306 306 307 305 308 310 312 316 318 319 323 322 324 323 325 325 327 326 326 326 323 324 324 324 324 325 325
307 305 304 304 303 303 305 306 306 304 305 305 305 306 304 306 304 304 306 306 307 306 309 311 312 315 319 320 322 321 320 321 324 325 325 327 327 325 324 324 325 324 323 324 324
306 304 304 304 303 305 305 306 306 307 306 306 305 305 305 304 304 306 306 306 307 306 313 310 313 317 318 316 314 316 317 318 319 322 324 325 325 324 323 323 324 323 323 324 324
304 304 303 303 304 304 305 306 305 305 306 304 305 304 304 304 304 306 305 307 308 310 313 313 316 317 316 316 318 318 321 321 321 321 323 322 322 321 322 322 322 322 323 323 324
304 303 303 303 304 304 305 304 304 303 308 307 305 306 305 305 305 305 306 306 309 309 312 317 316 315 317 317 320 318 319 320 321 321 321 321 322 322 322 321 320 322 322 322 323
303 303 303 303 304 305 305 303 304 305 312 309 307 306 306 306 308 304 305 307 309 309 312 315 314 316 317 316 315 318 317 318 321 323 324 320 320 320 321 321 320 321 321 322 323
304 303 303 303 306 306 305 304 304 305 316 309 308 306 306 307 307 305 305 308 311 310 313 317 315 317 317 316 315 316 317 318 320 321 318 322 322 319 320 320 320 320 321 321 321
304 304 303 304 306 305 304 304 306 310 315 310 309 307 307 307 307 308 310 308 310 314 315 316 314 315 317 316 316 317 318 317 317 318 322 319 320 317 320 319 318 319 319 320 321
304 304 305 306 306 304 305 306 312 317 310 312 309 308 307 308 309 310 312 314 314 316 317 316 315 314 317 318 317 316 318 322 322 323 321 318 319 318 318 317 317 317 319 319 320
304 304 305 305 304 305 306 308 318 314 316 311 309 308 310 310 309 311 312 314 314 315 318 320 319 318 317 318 319 317 317 319 318 319 317 317 319 318 317 316 315 315 316 317 319
304 307 307 304 304 305 307 316 316 315 313 313 311 313 312 311 311 311 312 313 314 315 317 319 319 314 316 318 318 319 321 315 318 317 319 318 316 316 314 315 315 314 314 315 315
307 308 307 304 304 305 310 313 313 310 312 313 316 315 312 312 312 313 313 313 315 313 314 317 320 316 317 317 317 319 316 317 321 321 316 316 316 316 314 314 314 313 312 312 314
307 309 305 304 305 308 314 314 312 309 311 313 315 315 313 314 312 314 314 314 314 314 314 315 318 318 317 319 320 318 319 318 317 317 317 315 314 315 314 315 315 315 314 313 312
308 310 304 304 309 308 314 313 310 312 311 313 314 314 315 316 316 315 315 315 313 314 315 314 317 320 319 317 316 318 318 318 320 318 316 316 316 314 313 314 315 315 316 315 314
310 307 304 304 312 314 312 313 313 313 313 313 313 312 312 315 316 315 314 313 314 313 315 314 317 320 320 318 316 318 318 317 317 318 323 318 315 313 312 312 315 315 314 315 314
309 309 306 305 309 312 313 313 314 312 312 311 312 311 313 313 313 315 315 313 314 314 312 312 315 317 320 318 317 317 317 317 318 323 318 317 315 313 312 314 314 314 314 314 315
305 310 309 311 311 311 312 313 313 313 312 311 313 313 313 314 314 315 314 313 313 313 312 314 319 314 313 312 316 316 316 316 319 318 320 316 315 314 314 314 314 314 313 313 315
304 304 303 307 307 311 309 313 313 313 313 313 313 312 312 313 313 314 314 314 315 313 314 313 318 315 316 314 313 314 314 314 316 316 317 316 316 314 315 314 314 313 313 313 313
298 298 305 304 308 311 311 311 312 311 312 312 313 312 313 312 309 309 310 311 312 314 314 314 315 315 317 311 312 313 313 314 314 314 315 317 316 315 314 314 314 313 314 314 314
Wind_Speed
14 16 16 15 15 14 15 16 13 12 9 8 7 4 6 7 9 10 14 15 11 11 6 11 15 15 16 13 10 1 6 15 23 14 14 8 8 1 1 1 6 5 7 4 13
13 13 16 16 16 14 14 15 11 10 8 5 2 1 3 5 8 13 12 10 11 15 10 15 16 18 14 17 11 13 12 21 27 20 11 9 7 3 4 7 6 3 6 7 14
18 11 14 16 14 12 12 12 10 9 7 4 2 2 4 2 4 6 2 5 11 15 13 12 17 15 17 16 17 13 13 22 20 11 14 12 8 3 5 3 6 4 5 3 10
16 13 12 14 14 13 10 10 8 7 6 5 3 1 3 5 2 2 8 11 13 14 11 11 12 19 16 21 19 13 26 26 10 5 11 13 11 7 2 8 4 5 4 4 7
16 14 14 12 15 13 11 9 7 6 5 5 3 1 3 5 6 6 9 12 9 18 16 12 12 19 18 20 20 20 15 18 10 9 17 12 13 10 6 6 2 5 6 6 2
17 14 14 13 14 13 11 9 6 5 4 4 3 2 7 7 5 7 8 6 6 17 19 12 6 18 14 17 18 14 13 14 6 10 6 10 7 13 5 7 4 2 6 5 6
15 15 14 13 14 14 12 10 6 5 4 5 5 5 7 4 5 7 4 3 7 5 11 2 12 8 12 12 10 11 12 14 15 13 8 8 15 16 13 10 5 4 2 4 3
17 14 15 13 13 13 12 10 6 6 5 5 6 7 5 1 4 6 4 2 3 11 4 6 8 11 19 11 13 16 17 16 16 17 5 7 18 17 21 11 9 6 3 4 4
16 15 17 14 14 11 11 9 6 6 5 4 7 5 2 1 3 6 6 4 2 3 9 7 4 4 9 17 14 15 15 21 18 16 7 12 13 16 12 15 10 11 8 3 2
15 16 15 15 15 10 7 3 2 2 3 5 7 6 2 3 6 4 4 4 2 4 4 4 2 2 13 16 17 18 17 22 16 13 12 15 18 3 5 16 17 17 14 10 6
14 15 15 15 13 10 5 3 4 4 6 5 5 4 2 7 1 3 4 4 1 4 4 3 2 4 22 21 16 17 17 20 16 11 14 14 13 15 12 12 20 22 18 14 10
14 14 15 15 12 5 5 5 3 4 2 1 4 4 4 4 4 4 6 4 4 2 6 3 2 8 10 14 7 16 14 9 6 7 10 14 16 16 16 18 18 22 23 20 14
13 13 13 12 5 4 6 3 2 1 3 2 2 3 3 4 5 4 7 2 2 2 2 6 2 5 10 12 17 13 15 15 13 10 12 7 14 15 18 18 17 18 19 22 21
12 11 10 5 3 3 3 4 2 1 3 4 1 3 1 4 1 7 3 2 1 3 1 2 6 6 10 11 12 14 11 15 13 12 6 15 6 18 19 19 19 18 16 19 22
12 10 6 8 1 2 2 4 2 3 2 2 3 2 1 3 4 1 6 4 2 6 4 3 2 7 12 12 8 11 5 10 9 11 5 13 6 12 4 15 17 16 18 18 16
12 6 4 5 3 1 5 4 3 2 3 1 4 1 1 4 3 3 2 4 2 2 10 9 6 1 3 4 2 8 11 5 5 6 7 14 10 9 7 5 9 14 18 17 17
6 8 7 3 1 5 3 3 2 2 1 1 1 1 3 6 4 4 2 5 3 3 3 4 2 3 3 7 4 14 15 5 4 4 5 3 9 13 5 5 6 7 9 15 16
8 11 5 1 4 4 3 2 1 4 1 3 2 3 4 2 3 3 3 6 5 2 3 2 2 6 7 6 6 14 14 4 5 6 9 4 6 4 2 2 1 4 8 7 12
11 7 4 2 3 1 4 2 2 3 4 6 4 2 2 1 2 2 1 2 2 2 2 3 3 4 4 2 4 10 10 3 3 3 1 6 8 8 2 6 5 4 5 7 6
8 5 3 3 3 2 2 2 1 2 3 5 2 4 7 8 5 3 4 3 2 2 5 4 4 3 4 3 1 4 8 3 2 4 4 4 6 3 6 6 4 1 3 5 6
8 3 1 5 1 3 1 2 3 3 2 2 1 4 4 7 5 5 1 2 3 4 2 1 3 3 6 3 8 4 4 4 3 3 3 1 3 7 9 6 7 7 4 1 4
6 2 1 5 2 1 1 2 1 5 4 2 3 2 3 5 5 2 3 2 6 2 4 2 4 3 4 4 6 8 10 13 4 5 3 5 1 8 7 5 4 7 5 3 1
3 3 1 1 2 3 4 3 1 5 4 3 2 3 1 3 2 2 2 1 9 5 2 2 3 4 4 5 5 7 10 8 9 3 6 6 3 3 3 5 3 3 6 2 2
3 3 3 2 5 3 4 4 5 1 3 2 0 2 2 1 1 3 4 3 6 4 3 3 3 4 3 3 1 7 13 14 9 4 11 15 15 5 5 8 8 8 7 6 5
3 3 3 4 7 6 3 3 7 4 2 2 3 2 4 3 3 3 4 6 5 2 3 3 2 1 3 1 3 4 9 15 15 17 13 14 18 15 15 14 13 9 5 6 6
3 3 3 3 4 7 4 5 7 4 2 4 2 1 3 1 5 6 5 6 6 8 6 3 2 1 3 5 5 8 12 14 16 20 21 22 23 19 19 19 17 13 13 15 9
2 1 3 4 6 7 5 7 6 3 3 5 2 3 6 4 4 4 4 2 2 3 7 3 2 2 2 2 5 10 18 18 17 15 14 17 17 16 15 15 12 12 12 13 13
Wind_Direction
344 339 341 338 341 342 341 349 349 341 330 314 300 279 252 248 272 265 250 258 248 262 279 225 220 225 229 212 201 205 225 227 218 224 209 130 190 133 339 174 54 36 20 34 134
336 342 336 338 339 345 342 349 351 355 360 353 329 256 221 248 268 263 259 266 266 254 256 220 220 207 215 210 192 206 231 205 230 201 205 147 218 137 195 155 131 137 65 32 147
335 339 341 334 331 342 345 344 356 2 6 353 343 260 234 237 253 243 32 298 267 248 242 256 245 199 225 207 201 207 220 238 236 217 128 159 145 159 186 148 53 8 349 48 163
340 338 338 335 330 335 333 340 349 353 351 339 334 286 235 230 284 44 346 309 276 227 229 243 220 205 206 209 196 225 211 235 226 89 152 198 145 114 38 85 69 32 19 126 164
332 336 333 334 330 331 327 328 337 343 344 337 326 256 250 230 268 349 331 326 259 189 217 233 220 201 199 208 199 217 215 220 161 156 178 194 191 125 120 118 116 14 61 137 161
329 332 328 330 327 324 314 317 313 322 339 327 320 301 267 259 6 332 328 343 34 175 202 230 263 216 215 194 203 202 232 205 159 178 174 194 166 169 128 153 198 34 56 130 193
327 331 328 323 335 321 313 306 294 296 290 304 315 313 265 7 360 355 345 14 58 39 196 261 320 281 207 196 208 225 189 210 172 190 165 216 195 213 156 179 221 244 100 62 110
326 327 325 321 326 314 317 301 310 283 256 282 301 302 292 1 349 9 351 36 44 352 286 358 309 288 246 194 172 182 188 190 198 192 165 226 212 207 202 188 222 260 252 139 109
323 324 325 319 320 308 312 306 285 250 239 271 285 294 274 267 13 3 352 344 107 85 252 280 311 281 203 185 177 185 188 198 177 199 156 196 223 223 223 207 234 252 257 210 254
320 323 324 320 316 304 302 322 148 218 252 258 259 252 209 16 357 333 325 349 253 49 174 214 190 302 190 183 185 182 206 194 177 189 191 202 243 132 219 226 246 250 253 226 200
319 323 321 318 313 303 261 191 199 193 226 323 357 316 331 332 223 68 330 309 156 46 190 107 74 228 182 187 189 186 215 187 201 149 194 225 228 233 201 229 230 241 246 233 219
316 321 322 320 305 272 232 243 354 359 175 255 298 279 299 327 284 128 339 292 235 290 141 120 239 239 220 177 144 163 149 154 144 156 208 215 235 237 231 230 233 228 235 241 229
314 320 321 318 313 244 226 235 248 276 268 103 340 324 7 317 19 347 339 55 3 339 161 80 287 232 186 160 156 161 169 162 171 165 210 261 237 229 226 227 231 234 235 231 239
311 316 318 312 244 182 218 188 184 263 252 24 15 85 222 294 97 311 279 353 120 197 191 104 296 191 185 168 179 173 193 162 135 159 204 210 254 199 218 219 226 230 229 234 223
312 313 298 198 1 226 109 160 177 233 355 34 17 357 333 304 116 294 272 239 127 137 241 84 197 193 185 176 208 165 164 149 168 212 288 182 247 260 172 225 227 231 236 238 234
312 299 178 161 221 106 146 150 210 236 51 53 323 1 290 43 54 65 195 220 269 202 88 100 76 332 213 195 148 141 151 156 206 244 244 244 212 246 185 243 240 231 232 231 234
320 144 150 153 37 162 164 209 237 3 222 55 34 33 56 40 54 11 203 149 151 140 102 106 90 284 236 175 182 173 150 136 180 197 238 354 211 256 146 206 232 272 257 226 218
120 119 137 130 159 155 241 247 64 86 60 94 110 64 42 40 50 348 1 104 69 57 103 109 130 173 160 203 185 193 182 175 198 193 202 145 233 236 315 14 308 307 271 279 233
131 127 131 160 159 208 264 249 89 100 171 148 158 147 109 3 255 165 319 87 69 173 212 132 59 297 258 240 248 189 223 31 304 24 18 173 236 274 260 242 241 251 252 236 220
154 161 117 175 183 267 262 46 102 145 158 193 231 269 127 134 182 231 184 60 44 21 333 92 108 237 155 352 50 277 151 182 274 174 224 158 249 140 133 100 80 30 275 272 257
168 182 79 176 223 246 272 89 132 179 218 213 26 130 120 143 153 196 77 85 91 132 21 310 163 158 161 216 194 172 196 238 300 346 300 212 167 109 117 95 78 62 44 318 265
175 165 159 165 237 229 156 125 93 149 202 248 282 57 181 178 172 200 210 40 133 156 165 191 112 139 192 223 275 285 243 209 226 194 261 321 332 153 131 92 86 75 57 66 193
175 117 125 232 195 187 125 149 211 163 173 187 231 295 245 178 222 154 129 21 165 181 196 173 142 133 159 212 223 248 230 248 252 34 207 228 208 169 221 230 169 62 12 8 170
178 141 149 198 261 283 163 165 155 162 142 191 307 234 199 156 235 141 129 138 196 225 336 239 211 240 245 29 235 207 221 224 207 220 228 231 263 212 194 218 211 250 331 303 222
223 157 159 187 202 202 190 177 169 163 188 163 151 267 237 160 145 143 108 132 184 174 226 277 255 192 294 331 96 245 248 231 223 232 243 254 256 259 265 260 245 298 326 299 230
190 175 178 135 149 183 164 182 193 149 239 137 149 107 213 49 1 162 166 186 183 183 219 220 260 167 262 223 243 258 253 242 241 241 248 256 265 269 278 282 277 261 265 278 264
165 153 259 143 182 200 176 164 164 185 93 77 107 158 99 55 18 1 4 345 350 222 202 219 193 224 250 288 268 259 240 237 238 236 241 249 259 272 270 276 276 273 272 272 269